Flag for Canada Weather past 2 weeks in Kings County, Nova Scotia, Canada

Now
59 °F

Cool.


Feels Like: 59 °F
Forecast: 58 / 75 °F
Wind: 2 mph from Northwest

Location: McNabs Island - AUT

Current Time: Jul 5, 2015 at 3:27:35 AM

Latest Report: Jul 5, 2015 at 3:00 AM


Visibility: N/A

Pressure: 29.93 "Hg

Humidity: N/A

Dew point: N/A

Location of Kings CountyLocation

Historic Weather in Kings County — Graph

°F

Kings County temperature yesterday

Maximum temperature yesterday: 76 °F (at 1:00 PM)
Minimum temperature yesterday: 58 °F (at 6:00 AM)
Average temperature yesterday: 65 °F

Past Weeks' High & Low Weather Summary

 TemperatureHumidityPressure
High76 °F (Jul 4, 1:00 PM)100% (Jun 21, 12:00 AM)30.22 "Hg (Jun 21, 12:00 AM)
Low48 °F (Jun 27, 5:00 AM)21% (Jun 29, 2:00 AM)29.43 "Hg (Jun 22, 5:00 AM)
Average59 °F72%29.92 "Hg
* Reported Jun 20 2:00 AM — Jul 5 2:00 AM, Kings County, Weather by CustomWeather, © 2015

Note: Actual official high and low records may vary slightly from our data, if they occured in-between our weather recording intervals... More about our weather records

Advertising

Kings County weather history for previous 24 hours

 ConditionsComfort  
Time TempWeatherWind HumidityBarometerVisibility
2:00 AM
Sun, Jul 5
57 °FCool.2 mphN/A29.93 "HgN/A
1:00 AM59 °FCool.5 mphN/A29.94 "HgN/A
12:00 AM59 °FCool.7 mphN/A29.93 "HgN/A
11:00 PM
Sat, Jul 4
61 °FCool.3 mph85%29.94 "HgN/A
10:00 PM61 °FCool.2 mph82%29.95 "HgN/A
9:00 PM64 °FMild.2 mph67%29.96 "HgN/A
8:00 PM65 °FMild.8 mph66%29.97 "HgN/A
7:00 PM67 °FMild.2 mph62%29.97 "HgN/A
6:00 PM67 °FMild.9 mph59%29.97 "HgN/A
5:00 PM68 °FMild.9 mph60%29.97 "HgN/A
4:00 PM70 °FMild.12 mph62%29.97 "HgN/A
3:00 PM74 °FMild.13 mph47%29.97 "HgN/A
2:00 PM71 °FMild.7 mph63%29.97 "HgN/A
1:00 PM76 °FMild.9 mph48%29.98 "HgN/A
12:00 PM72 °FMild.8 mph61%30.00 "HgN/A
11:00 AM74 °FMild.1 mph61%29.99 "HgN/A
10:00 AM71 °FMild.3 mph58%29.99 "HgN/A
9:00 AM67 °FMild.5 mph63%29.99 "HgN/A
8:00 AM63 °FMild.3 mph69%29.98 "HgN/A
7:00 AM59 °FCool.5 mph76%29.96 "HgN/A
6:00 AM58 °FCool.5 mph80%29.96 "HgN/A
5:00 AM58 °FCool.6 mph79%29.95 "HgN/A
4:00 AM59 °FCool.3 mph80%29.94 "HgN/A
3:00 AM58 °FCool.5 mph83%29.93 "HgN/A
Weather by CustomWeather, © 2015

See weather overviewHow to use our weather pages